EN

Hourly Weather Bolshie Tupoly

Today, 23 October, Friday

Time Temperature Precipitation Wind Pressure Humidity
00:00 +11°C° 0 mm 4 mps 744 mmHg 92%
01:00 +10°C° 0 mm 4 mps 744 mmHg 93%
02:00 +10°C° 0 mm 3 mps 744 mmHg 93%
03:00 +10°C° 0 mm 3 mps 744 mmHg 94%
04:00 +10°C° 0 mm 3 mps 743 mmHg 94%
05:00 +10°C° 0 mm 3 mps 743 mmHg 94%
06:00 +10°C° 0 mm 4 mps 743 mmHg 93%
07:00 +10°C° 0 mm 4 mps 742 mmHg 91%
08:00 +11°C° 0 mm 4 mps 742 mmHg 90%
09:00 +12°C° 0 mm 5 mps 742 mmHg 86%
10:00 +13°C° 0 mm 5 mps 742 mmHg 82%
11:00 +13°C° 0 mm 6 mps 742 mmHg 79%
12:00 +13°C° 0.3 mm 5 mps 741 mmHg 80%
13:00 +13°C° 0.3 mm 5 mps 741 mmHg 82%
14:00 +13°C° 0.3 mm 5 mps 741 mmHg 84%
15:00 +13°C° 0 mm 4 mps 741 mmHg 85%
16:00 +13°C° 0 mm 4 mps 741 mmHg 86%
17:00 +13°C° 0 mm 4 mps 741 mmHg 87%
18:00 +12°C° 0 mm 3 mps 741 mmHg 89%
19:00 +12°C° 0 mm 3 mps 741 mmHg 91%
20:00 +11°C° 0 mm 3 mps 742 mmHg 94%
21:00 +10°C° 0 mm 3 mps 742 mmHg 94%
22:00 +10°C° 0 mm 2 mps 742 mmHg 94%
23:00 +9°C° 0 mm 2 mps 742 mmHg 94%

Tomorrow, 24 October, Saturday

Time Temperature Precipitation Wind Pressure Humidity
00:00 +9°C° 0 mm 2 mps 742 mmHg 94%
01:00 +10°C° 0 mm 1 mps 742 mmHg 93%
02:00 +10°C° 0 mm 1 mps 743 mmHg 92%
03:00 +10°C° 0 mm 1 mps 742 mmHg 92%
04:00 +10°C° 0 mm 1 mps 742 mmHg 92%
05:00 +9°C° 0 mm 1 mps 742 mmHg 92%
06:00 +10°C° 0 mm 1 mps 742 mmHg 91%
07:00 +10°C° 0 mm 1 mps 742 mmHg 91%
08:00 +10°C° 0 mm 1 mps 742 mmHg 91%
09:00 +11°C° 0.5 mm 1 mps 742 mmHg 92%
10:00 +11°C° 0.5 mm 1 mps 742 mmHg 93%
11:00 +11°C° 0.5 mm 1 mps 742 mmHg 95%
12:00 +11°C° 1.1 mm 1 mps 742 mmHg 95%
13:00 +11°C° 1.1 mm 1 mps 742 mmHg 96%
14:00 +11°C° 1.1 mm 1 mps 742 mmHg 97%
15:00 +11°C° 1 mm 1 mps 741 mmHg 97%
16:00 +11°C° 1 mm 1 mps 741 mmHg 97%
17:00 +10°C° 1 mm 1 mps 741 mmHg 96%
18:00 +10°C° 0 mm 1 mps 742 mmHg 96%
19:00 +9°C° 0 mm 2 mps 742 mmHg 95%
20:00 +8°C° 0 mm 2 mps 742 mmHg 95%
21:00 +8°C° 0 mm 2 mps 743 mmHg 95%
22:00 +9°C° 0 mm 3 mps 743 mmHg 95%
23:00 +9°C° 0 mm 3 mps 744 mmHg 95%

Day after tomorrow, 25 October, Sunday

Time Temperature Precipitation Wind Pressure Humidity
00:00 +8°C° 0 mm 3 mps 744 mmHg 95%
01:00 +8°C° 0 mm 3 mps 744 mmHg 96%
02:00 +8°C° 0 mm 3 mps 744 mmHg 96%
03:00 +8°C° 0 mm 3 mps 745 mmHg 96%
04:00 +8°C° 0 mm 3 mps 745 mmHg 95%
05:00 +8°C° 0 mm 3 mps 746 mmHg 94%
06:00 +8°C° 0 mm 2 mps 746 mmHg 94%
07:00 +8°C° 0 mm 2 mps 746 mmHg 93%
08:00 +8°C° 0 mm 2 mps 746 mmHg 93%
09:00 +9°C° 0 mm 2 mps 747 mmHg 88%
10:00 +10°C° 0 mm 2 mps 747 mmHg 83%
11:00 +12°C° 0 mm 2 mps 747 mmHg 78%
12:00 +12°C° 0 mm 2 mps 747 mmHg 76%
13:00 +13°C° 0 mm 2 mps 747 mmHg 73%
14:00 +12°C° 0 mm 3 mps 747 mmHg 70%
15:00 +12°C° 0 mm 2 mps 747 mmHg 74%
16:00 +10°C° 0 mm 2 mps 747 mmHg 79%
17:00 +9°C° 0 mm 2 mps 747 mmHg 84%
18:00 +9°C° 0 mm 2 mps 748 mmHg 85%
19:00 +8°C° 0 mm 2 mps 748 mmHg 86%
20:00 +8°C° 0 mm 2 mps 748 mmHg 87%
21:00 +8°C° 0 mm 2 mps 748 mmHg 89%
22:00 +7°C° 0 mm 2 mps 748 mmHg 90%
23:00 +7°C° 0 mm 2 mps 749 mmHg 92%

, 26 October, Monday

Time Temperature Precipitation Wind Pressure Humidity
00:00 +7°C° 0 mm 2 mps 749 mmHg 93%
01:00 +6°C° 0 mm 2 mps 749 mmHg 94%
02:00 +6°C° 0 mm 2 mps 749 mmHg 95%
03:00 +5°C° 0 mm 3 mps 749 mmHg 95%
04:00 +5°C° 0 mm 3 mps 749 mmHg 95%
05:00 +4°C° 0 mm 3 mps 748 mmHg 95%
06:00 +5°C° 0 mm 3 mps 748 mmHg 95%
07:00 +5°C° 0 mm 4 mps 748 mmHg 95%
08:00 +5°C° 0 mm 4 mps 748 mmHg 95%
09:00 +6°C° 0 mm 4 mps 748 mmHg 91%
10:00 +7°C° 0 mm 5 mps 748 mmHg 86%
11:00 +9°C° 0 mm 5 mps 748 mmHg 81%
12:00 +9°C° 0 mm 5 mps 748 mmHg 80%
13:00 +10°C° 0 mm 5 mps 748 mmHg 78%
14:00 +10°C° 0 mm 5 mps 748 mmHg 77%
15:00 +10°C° 0 mm 5 mps 747 mmHg 79%
16:00 +9°C° 0 mm 5 mps 747 mmHg 82%
17:00 +9°C° 0 mm 5 mps 747 mmHg 85%
18:00 +8°C° 0 mm 5 mps 746 mmHg 85%
19:00 +8°C° 0 mm 5 mps 746 mmHg 86%
20:00 +8°C° 0 mm 5 mps 746 mmHg 87%
21:00 +8°C° 0 mm 5 mps 746 mmHg 87%
22:00 +8°C° 0 mm 6 mps 746 mmHg 86%
23:00 +8°C° 0 mm 6 mps 746 mmHg 86%

26 October, Monday

Time Temperature Precipitation Wind Pressure Humidity
00:00 +7°C° 0 mm 2 mps 749 mmHg 93%
01:00 +6°C° 0 mm 2 mps 749 mmHg 94%
02:00 +6°C° 0 mm 2 mps 749 mmHg 95%
03:00 +5°C° 0 mm 3 mps 749 mmHg 95%
04:00 +5°C° 0 mm 3 mps 749 mmHg 95%
05:00 +4°C° 0 mm 3 mps 748 mmHg 95%
06:00 +5°C° 0 mm 3 mps 748 mmHg 95%
07:00 +5°C° 0 mm 4 mps 748 mmHg 95%
08:00 +5°C° 0 mm 4 mps 748 mmHg 95%
09:00 +6°C° 0 mm 4 mps 748 mmHg 91%
10:00 +7°C° 0 mm 5 mps 748 mmHg 86%
11:00 +9°C° 0 mm 5 mps 748 mmHg 81%
12:00 +9°C° 0 mm 5 mps 748 mmHg 80%
13:00 +10°C° 0 mm 5 mps 748 mmHg 78%
14:00 +10°C° 0 mm 5 mps 748 mmHg 77%
15:00 +10°C° 0 mm 5 mps 747 mmHg 79%
16:00 +9°C° 0 mm 5 mps 747 mmHg 82%
17:00 +9°C° 0 mm 5 mps 747 mmHg 85%
18:00 +8°C° 0 mm 5 mps 746 mmHg 85%
19:00 +8°C° 0 mm 5 mps 746 mmHg 86%
20:00 +8°C° 0 mm 5 mps 746 mmHg 87%
21:00 +8°C° 0 mm 5 mps 746 mmHg 87%
22:00 +8°C° 0 mm 6 mps 746 mmHg 86%
23:00 +8°C° 0 mm 6 mps 746 mmHg 86%

27 October, Tuesday

Time Temperature Precipitation Wind Pressure Humidity
00:00 +8°C° 0 mm 6 mps 746 mmHg 88%
01:00 +8°C° 0 mm 5 mps 745 mmHg 90%
02:00 +8°C° 0 mm 5 mps 745 mmHg 91%
03:00 +9°C° 0.3 mm 5 mps 745 mmHg 92%
04:00 +9°C° 0.3 mm 5 mps 745 mmHg 92%
05:00 +9°C° 0.3 mm 5 mps 745 mmHg 92%
06:00 +9°C° 0 mm 6 mps 745 mmHg 91%
07:00 +10°C° 0 mm 6 mps 745 mmHg 91%
08:00 +10°C° 0 mm 6 mps 745 mmHg 90%
09:00 +10°C° 0 mm 6 mps 745 mmHg 87%
10:00 +12°C° 0 mm 5 mps 745 mmHg 85%
11:00 +12°C° 0 mm 5 mps 745 mmHg 82%
12:00 +13°C° 0 mm 5 mps 745 mmHg 81%
13:00 +13°C° 0 mm 5 mps 745 mmHg 80%
14:00 +14°C° 0 mm 5 mps 745 mmHg 79%
15:00 +13°C° 0 mm 5 mps 745 mmHg 82%
16:00 +13°C° 0 mm 4 mps 745 mmHg 85%
17:00 +12°C° 0 mm 4 mps 745 mmHg 88%
18:00 +12°C° 0 mm 4 mps 745 mmHg 89%
19:00 +12°C° 0 mm 4 mps 745 mmHg 91%
20:00 +11°C° 0 mm 4 mps 745 mmHg 92%
21:00 +11°C° 0 mm 4 mps 746 mmHg 93%
22:00 +11°C° 0 mm 3 mps 746 mmHg 94%
23:00 +11°C° 0 mm 3 mps 746 mmHg 94%

28 October, Wednesday

Time Temperature Precipitation Wind Pressure Humidity
00:00 +10°C° 0 mm 3 mps 746 mmHg 95%
01:00 +10°C° 0 mm 3 mps 746 mmHg 95%
02:00 +10°C° 0 mm 3 mps 746 mmHg 96%
03:00 +9°C° 0 mm 2 mps 746 mmHg 96%
04:00 +9°C° 0 mm 2 mps 746 mmHg 96%
05:00 +9°C° 0 mm 2 mps 745 mmHg 96%
06:00 +9°C° 0 mm 2 mps 746 mmHg 97%
07:00 +9°C° 0 mm 2 mps 746 mmHg 97%
08:00 +9°C° 0 mm 2 mps 746 mmHg 97%
09:00 +10°C° 0 mm 2 mps 746 mmHg 93%
10:00 +13°C° 0 mm 2 mps 746 mmHg 89%
11:00 +14°C° 0 mm 2 mps 746 mmHg 86%
12:00 +15°C° 0 mm 2 mps 746 mmHg 84%
13:00 +15°C° 0 mm 2 mps 746 mmHg 81%
14:00 +16°C° 0 mm 1 mps 746 mmHg 79%
15:00 +15°C° 0 mm 1 mps 746 mmHg 83%
16:00 +14°C° 0 mm 1 mps 746 mmHg 87%
17:00 +13°C° 0 mm 2 mps 746 mmHg 92%
18:00 +12°C° 0 mm 2 mps 746 mmHg 92%
19:00 +12°C° 0 mm 2 mps 746 mmHg 93%
20:00 +10°C° 0 mm 2 mps 746 mmHg 94%
21:00 +10°C° 0 mm 2 mps 746 mmHg 94%
22:00 +10°C° 0 mm 2 mps 746 mmHg 94%
23:00 +10°C° 0 mm 2 mps 746 mmHg 94%
Show more